﻿_id,日時,平均風速(m/s),平均風向,最大瞬間風速(m/s),最大風速時風向,気温(℃),湿度(%),10分間移動積算雨量(mm),1時間移動積算雨量(mm),日雨量(mm),累計雨量(mm)
1,2019-07-08T00:00:00,0.3,北北東,0.6,北北東,20.2,91.2,0,0,0,0
2,2019-07-08T00:01:00,0.3,北北東,0.7,北西,20.1,91.1,0,0,0,0
3,2019-07-08T00:02:00,0.3,北,0.7,北西,20,91.2,0,0,0,0
4,2019-07-08T00:03:00,0.3,北北西,0.7,北西,20,91.4,0,0,0,0
5,2019-07-08T00:04:00,0.3,北北西,0.7,北西,20,91.6,0,0,0,0
6,2019-07-08T00:05:00,0.2,静穏,0.7,北西,20,91.9,0,0,0,0
7,2019-07-08T00:06:00,0.3,北北西,0.7,北西,20,92.1,0,0,0,0
8,2019-07-08T00:07:00,0.3,北北西,0.7,北西,20,91.9,0,0,0,0
9,2019-07-08T00:08:00,0.3,北,0.7,北西,20.1,92.1,0,0,0,0
10,2019-07-08T00:09:00,0.4,北,0.7,北西,20,91.8,0,0,0,0
11,2019-07-08T00:10:00,0.3,北,0.7,北西,19.9,91.9,0,0,0,0
12,2019-07-08T00:11:00,0.3,北,0.7,北北東,19.9,92.3,0,0,0,0
13,2019-07-08T00:12:00,0.3,北,0.7,北北東,20,92.6,0,0,0,0
14,2019-07-08T00:13:00,0.3,北,0.7,北北東,20,92.5,0,0,0,0
15,2019-07-08T00:14:00,0.3,北,0.7,北北東,20.1,92.3,0,0,0,0
16,2019-07-08T00:15:00,0.3,北,0.7,北北東,19.9,91.6,0,0,0,0
17,2019-07-08T00:16:00,0.3,北北西,0.7,北北東,20,91.9,0,0,0,0
18,2019-07-08T00:17:00,0.3,北北西,0.7,北北東,20,91.9,0,0,0,0
19,2019-07-08T00:18:00,0.3,北西,0.6,北北東,19.9,91.6,0,0,0,0
20,2019-07-08T00:19:00,0.3,北西,0.5,北西,19.9,92,0,0,0,0
21,2019-07-08T00:20:00,0.3,北西,0.5,北西,19.8,91.7,0,0,0,0
22,2019-07-08T00:21:00,0.2,静穏,0.5,北西,19.8,91.8,0,0,0,0
23,2019-07-08T00:22:00,0.2,静穏,0.5,北西,19.7,92.1,0,0,0,0
24,2019-07-08T00:23:00,0.2,静穏,0.5,北西,19.8,92.7,0,0,0,0
25,2019-07-08T00:24:00,0.2,静穏,0.5,北西,19.7,92.8,0,0,0,0
26,2019-07-08T00:25:00,0.3,北北西,0.5,北西,19.7,92.8,0,0,0,0
27,2019-07-08T00:26:00,0.3,北北西,0.5,北西,19.7,93,0,0,0,0
28,2019-07-08T00:27:00,0.3,北北西,0.5,北西,19.7,93.2,0,0,0,0
29,2019-07-08T00:28:00,0.3,北北西,0.5,北西,19.7,93.3,0,0,0,0
30,2019-07-08T00:29:00,0.3,北北西,0.5,西北西,19.7,93.3,0,0,0,0
31,2019-07-08T00:30:00,0.3,北北西,0.6,西北西,19.7,93,0,0,0,0
32,2019-07-08T00:31:00,,"",,"",,,,,,
33,2019-07-08T00:32:00,0.4,北西,0.6,西北西,19.7,93,0,0,0,0
34,2019-07-08T00:33:00,0.3,北西,0.6,西北西,19.7,93,0,0,0,0
35,2019-07-08T00:34:00,0.3,北西,0.6,西北西,19.7,93.2,0,0,0,0
36,2019-07-08T00:35:00,0.3,北西,0.6,西北西,19.9,93.4,0,0,0,0
37,2019-07-08T00:36:00,0.3,北西,0.6,西北西,19.8,92.7,0,0,0,0
38,2019-07-08T00:37:00,0.2,静穏,0.6,西北西,19.8,92.6,0,0,0,0
39,2019-07-08T00:38:00,0.2,静穏,0.6,西北西,19.8,92.6,0,0,0,0
40,2019-07-08T00:39:00,0.2,静穏,0.6,西北西,19.8,92.8,0,0,0,0
41,2019-07-08T00:40:00,0.1,静穏,0.5,西北西,19.8,92.7,0,0,0,0
42,2019-07-08T00:41:00,0.1,静穏,0.5,西北西,19.9,92.8,0,0,0,0
43,2019-07-08T00:42:00,0.1,静穏,0.4,南南西,19.8,92.6,0,0,0,0
44,2019-07-08T00:43:00,0.1,静穏,0.4,南南西,19.8,92.5,0,0,0,0
45,2019-07-08T00:44:00,0.2,静穏,0.5,南南西,19.8,92.4,0,0,0,0
46,2019-07-08T00:45:00,0.2,静穏,0.6,南南西,19.8,92.6,0,0,0,0
47,2019-07-08T00:46:00,0.3,南南西,0.6,南南西,19.8,92.6,0,0,0,0
48,2019-07-08T00:47:00,0.3,南南西,0.6,南南西,19.8,92,0,0,0,0
49,2019-07-08T00:48:00,0.4,南南西,0.7,西南西,19.7,91.9,0,0,0,0
50,2019-07-08T00:49:00,0.4,南南西,0.8,西南西,19.6,91.9,0,0,0,0
51,2019-07-08T00:50:00,0.4,南西,0.8,西南西,19.7,92.4,0,0,0,0
52,2019-07-08T00:51:00,0.5,南西,0.8,西南西,19.6,92.4,0,0,0,0
53,2019-07-08T00:52:00,0.5,南西,0.8,西南西,19.6,92.6,0,0,0,0
54,2019-07-08T00:53:00,0.5,南西,0.8,西南西,19.6,92.7,0,0,0,0
55,2019-07-08T00:54:00,0.5,西南西,0.8,西南西,19.6,92.8,0,0,0,0
56,2019-07-08T00:55:00,0.4,西南西,0.8,西南西,19.6,93,0,0,0,0
57,2019-07-08T00:56:00,0.4,西南西,0.8,西南西,19.7,93.1,0,0,0,0
58,2019-07-08T00:57:00,0.4,西南西,0.8,西南西,19.6,93,0,0,0,0
59,2019-07-08T00:58:00,0.4,南西,0.9,南南西,19.6,93.1,0,0,0,0
60,2019-07-08T00:59:00,0.5,南西,1,南南西,19.5,93.3,0,0,0,0
61,2019-07-08T01:00:00,0.5,南西,1,南南西,19.5,93.3,0,0,0,0
62,2019-07-08T01:01:00,0.5,南西,1,南南西,19.5,93.6,0,0,0,0
63,2019-07-08T01:02:00,0.5,南西,1.3,南南西,19.5,93.9,0,0,0,0
64,2019-07-08T01:03:00,0.6,南南西,1.4,南南西,19.4,94,0,0,0,0
65,2019-07-08T01:04:00,0.7,南南西,1.4,南南西,19.4,94.2,0,0,0,0
66,2019-07-08T01:05:00,0.7,南南西,1.4,南南西,19.5,94.3,0,0,0,0
67,2019-07-08T01:06:00,0.8,南南西,1.4,南南西,19.4,94.2,0,0,0,0
68,2019-07-08T01:07:00,0.8,南南西,1.4,南南西,19.4,93.9,0,0,0,0
69,2019-07-08T01:08:00,0.8,南南西,1.4,南南西,19.3,94.1,0,0,0,0
70,2019-07-08T01:09:00,0.8,南南西,1.4,南南西,19.3,94.2,0,0,0,0
71,2019-07-08T01:10:00,0.8,南南西,1.4,南南西,19.3,94.5,0,0,0,0
72,2019-07-08T01:11:00,0.8,南南西,1.4,南南西,19.3,94.6,0,0,0,0
73,2019-07-08T01:12:00,0.7,南南西,1.4,南南西,19.4,94.6,0,0,0,0
74,2019-07-08T01:13:00,0.6,南南西,1.2,南,19.4,94.6,0,0,0,0
75,2019-07-08T01:14:00,,"",,"",,,,,,
76,2019-07-08T01:15:00,0.5,南,1,南南西,19.3,94.7,0,0,0,0
77,2019-07-08T01:16:00,,"",,"",,,,,,
78,2019-07-08T01:17:00,0.5,南,1,南南東,19.3,95,0,0,0,0
79,2019-07-08T01:18:00,0.5,南,1,南南東,19.3,95.1,0,0,0,0
80,2019-07-08T01:19:00,0.5,南南東,1,南南東,19.3,95.2,0,0,0,0
81,2019-07-08T01:20:00,0.5,南南東,1,南南東,19.3,95.3,0,0,0,0
82,2019-07-08T01:21:00,0.6,南南東,1,南南東,19.3,95.2,0,0,0,0
83,2019-07-08T01:22:00,0.6,南南東,1,南南東,19.4,95.2,0,0,0,0
84,2019-07-08T01:23:00,0.6,南東,1,南南東,19.4,95.2,0,0,0,0
85,2019-07-08T01:24:00,0.6,南東,1,南南東,19.5,95.1,0,0,0,0
86,2019-07-08T01:25:00,0.6,東南東,1,南南東,19.4,94.4,0,0,0,0
87,2019-07-08T01:26:00,0.6,東南東,1,南南東,19.3,94.2,0,0,0,0
88,2019-07-08T01:27:00,0.5,東南東,0.9,東,19.4,94.5,0,0,0,0
89,2019-07-08T01:28:00,0.4,東南東,0.9,東,19.4,94.3,0,0,0,0
90,2019-07-08T01:29:00,0.4,東,0.9,東,19.3,94.1,0,0,0,0
91,2019-07-08T01:30:00,0.3,東,0.9,東,19.4,94.3,0,0,0,0
92,2019-07-08T01:31:00,0.3,東北東,0.9,東,19.3,94.2,0,0,0,0
93,2019-07-08T01:32:00,0.3,東北東,0.9,東,19.3,94.3,0,0,0,0
94,2019-07-08T01:33:00,0.3,北東,0.9,東,19.3,94.4,0,0,0,0
95,2019-07-08T01:34:00,0.2,静穏,0.8,東南東,19.4,94.4,0,0,0,0
96,2019-07-08T01:35:00,0.2,静穏,0.8,東南東,19.5,94.6,0,0,0,0
97,2019-07-08T01:36:00,0.2,静穏,0.7,西南西,19.5,94.4,0,0,0,0
98,2019-07-08T01:37:00,0.3,北西,0.9,西南西,19.5,94.1,0,0,0,0
99,2019-07-08T01:38:00,0.3,西北西,0.9,西南西,19.3,93.6,0,0,0,0
100,2019-07-08T01:39:00,0.4,西,1.1,南西,19.3,93.9,0,0,0,0
101,2019-07-08T01:40:00,0.5,西,1.4,南西,19.3,94.3,0,0,0,0
102,2019-07-08T01:41:00,0.6,西南西,1.4,南西,19.2,94.5,0,0,0,0
103,2019-07-08T01:42:00,0.7,西南西,1.4,南西,19.2,94.5,0,0,0,0
104,2019-07-08T01:43:00,0.7,西南西,1.4,南西,19.2,94.8,0,0,0,0
105,2019-07-08T01:44:00,0.8,南西,1.4,南西,19.2,94.9,0,0,0,0
106,2019-07-08T01:45:00,0.8,南西,1.4,南西,19.2,95.1,0,0,0,0
107,2019-07-08T01:46:00,0.8,南西,1.4,南西,19.2,95.2,0,0,0,0
108,2019-07-08T01:47:00,0.7,南西,1.4,南西,19.2,95.2,0,0,0,0
109,2019-07-08T01:48:00,0.7,南南西,1.4,南西,19.2,95,0,0,0,0
110,2019-07-08T01:49:00,0.7,南南西,1.4,南西,19.2,95.1,0,0,0,0
111,2019-07-08T01:50:00,0.6,南南西,1.3,南西,19.2,95,0,0,0,0
112,2019-07-08T01:51:00,0.5,南南西,1,南西,19.1,94.9,0,0,0,0
113,2019-07-08T01:52:00,0.5,南西,0.8,南西,19.2,95.1,0,0,0,0
114,2019-07-08T01:53:00,0.5,南西,0.7,西南西,19.3,95.1,0,0,0,0
115,2019-07-08T01:54:00,0.5,南西,1.3,北,19.1,94.5,0,0,0,0
116,2019-07-08T01:55:00,0.6,西南西,1.3,北,19,94.5,0,0,0,0
117,2019-07-08T01:56:00,0.6,西,1.3,北,18.9,94.7,0,0,0,0
118,2019-07-08T01:57:00,0.7,西北西,1.3,北,18.8,94.8,0,0,0,0
119,2019-07-08T01:58:00,,"",,"",,,,,,
120,2019-07-08T01:59:00,0.8,北西,1.3,北,18.8,95.3,0,0,0,0
121,2019-07-08T02:00:00,0.9,北北西,1.3,北,18.8,95.4,0,0,0,0
122,2019-07-08T02:01:00,0.9,北北西,1.3,北,18.8,95.6,0,0,0,0
123,2019-07-08T02:02:00,0.9,北北西,1.3,北,18.8,95.7,0,0,0,0
124,2019-07-08T02:03:00,1,北北西,1.3,北,18.8,95.8,0,0,0,0
125,2019-07-08T02:04:00,1,北北西,1.3,北,18.8,95.9,0,0,0,0
126,2019-07-08T02:05:00,0.9,北北西,1.2,北北西,18.8,95.9,0,0,0,0
127,2019-07-08T02:06:00,0.9,北北西,1.2,北北西,18.8,95.8,0,0,0,0
128,2019-07-08T02:07:00,0.9,北北西,1.2,北北西,18.9,95.9,0,0,0,0
129,2019-07-08T02:08:00,0.8,北北西,1.2,北北西,18.8,95.9,0,0,0,0
130,2019-07-08T02:09:00,0.8,北北西,1.1,北北西,18.8,95.9,0,0,0,0
131,2019-07-08T02:10:00,0.8,北,1.1,北北西,18.8,95.9,0,0,0,0
132,2019-07-08T02:11:00,0.8,北,1.1,北北西,18.8,95.9,0,0,0,0
133,2019-07-08T02:12:00,0.7,北,1,北,18.8,96,0,0,0,0
134,2019-07-08T02:13:00,0.7,北,1,北,18.9,96,0,0,0,0
135,2019-07-08T02:14:00,0.7,北,1,北,18.9,96.1,0,0,0,0
136,2019-07-08T02:15:00,0.7,北,1,北,18.9,95.7,0,0,0,0
137,2019-07-08T02:16:00,0.6,北,1,北,18.8,95.7,0,0,0,0
138,2019-07-08T02:17:00,0.6,北,1,北,18.8,95.7,0,0,0,0
139,2019-07-08T02:18:00,0.6,北,1,北,18.8,95.7,0,0,0,0
140,2019-07-08T02:19:00,0.5,北,1,北,18.8,95.7,0,0,0,0
141,2019-07-08T02:20:00,0.5,北北西,1,北,18.9,95.8,0,0,0,0
142,2019-07-08T02:21:00,0.4,北北西,1,北,18.9,95.9,0,0,0,0
143,2019-07-08T02:22:00,0.4,北北西,0.7,北,19,95.8,0,0,0,0
144,2019-07-08T02:23:00,0.4,北西,0.6,北北西,18.9,95.5,0,0,0,0
145,2019-07-08T02:24:00,0.3,北西,0.6,北北西,18.9,95.5,0,0,0,0
146,2019-07-08T02:25:00,0.3,西北西,0.6,北北西,19,95.5,0,0,0,0
147,2019-07-08T02:26:00,0.3,西北西,0.5,西南西,18.9,95.5,0,0,0,0
148,2019-07-08T02:27:00,0.3,西,0.8,南西,18.9,95.4,0,0,0,0
149,2019-07-08T02:28:00,0.4,西,0.9,南西,18.8,95.3,0,0,0,0
150,2019-07-08T02:29:00,0.4,西,1,南西,18.7,95.4,0,0,0,0
151,2019-07-08T02:30:00,0.5,西南西,1,南西,18.8,95.5,0,0,0,0
152,2019-07-08T02:31:00,0.5,西南西,1,南西,18.7,95.4,0,0,0,0
153,2019-07-08T02:32:00,0.6,西南西,1,南西,18.7,95.5,0,0,0,0
154,2019-07-08T02:33:00,0.6,南西,1,南西,18.7,95.5,0,0,0,0
155,2019-07-08T02:34:00,0.7,南西,1,南西,18.7,95.5,0,0,0,0
156,2019-07-08T02:35:00,0.7,南西,1,南西,18.8,95.6,0,0,0,0
157,2019-07-08T02:36:00,0.7,南西,1,南西,18.8,95.6,0,0,0,0
158,2019-07-08T02:37:00,0.6,南西,1,南西,18.8,95.4,0,0,0,0
159,2019-07-08T02:38:00,0.6,南西,1,南西,18.8,95.4,0,0,0,0
160,2019-07-08T02:39:00,0.5,南西,0.9,南南西,18.8,95.4,0,0,0,0
161,2019-07-08T02:40:00,0.4,南西,0.9,南南西,18.8,95.4,0,0,0,0
162,2019-07-08T02:41:00,0.4,南西,0.8,南南西,18.8,95.4,0,0,0,0
163,2019-07-08T02:42:00,0.3,西南西,0.7,南西,18.8,95.3,0,0,0,0
164,2019-07-08T02:43:00,0.3,西南西,0.7,南西,18.8,95.3,0,0,0,0
165,2019-07-08T02:44:00,,"",,"",,,,,,
166,2019-07-08T02:45:00,0.2,静穏,0.5,西南西,18.7,95.3,0,0,0,0
167,2019-07-08T02:46:00,,"",,"",,,,,,
168,2019-07-08T02:47:00,0.2,静穏,0.5,西南西,18.6,95.4,0,0,0,0
169,2019-07-08T02:48:00,0.2,静穏,0.5,北北東,18.6,95.5,0,0,0,0
170,2019-07-08T02:49:00,0.3,北西,0.5,北北東,18.7,95.6,0,0,0,0
171,2019-07-08T02:50:00,0.3,北西,0.5,北北東,18.6,95.7,0,0,0,0
172,2019-07-08T02:51:00,0.3,北西,0.5,北北東,18.6,95.7,0,0,0,0
173,2019-07-08T02:52:00,0.3,北北西,0.5,北北東,18.7,95.7,0,0,0,0
174,2019-07-08T02:53:00,0.3,北北西,0.5,北北東,18.8,95.8,0,0,0,0
175,2019-07-08T02:54:00,0.3,北北西,0.5,北北東,18.7,95.7,0,0,0,0
176,2019-07-08T02:55:00,0.3,北北西,0.5,北北東,18.7,95.4,0,0,0,0
177,2019-07-08T02:56:00,0.3,北北西,0.5,北北東,18.7,95.4,0,0,0,0
178,2019-07-08T02:57:00,0.3,北北西,0.5,北北東,18.6,95.4,0,0,0,0
179,2019-07-08T02:58:00,0.3,北西,0.5,北西,18.6,95.4,0,0,0,0
180,2019-07-08T02:59:00,0.3,北西,0.5,北西,18.6,95.5,0,0,0,0
181,2019-07-08T03:00:00,0.3,北西,0.5,北西,18.6,95.6,0,0,0,0
182,2019-07-08T03:01:00,0.3,北西,0.5,北西,18.6,95.5,0,0,0,0
183,2019-07-08T03:02:00,0.4,北北西,0.5,北西,18.7,95.7,0,0,0,0
184,2019-07-08T03:03:00,0.4,北北西,0.5,北西,18.6,95.7,0,0,0,0
185,2019-07-08T03:04:00,0.4,北北西,0.5,北西,18.7,95.7,0,0,0,0
186,2019-07-08T03:05:00,0.3,北北西,0.5,北西,18.8,95.6,0,0,0,0
187,2019-07-08T03:06:00,0.3,北,0.5,北北東,18.8,95.5,0,0,0,0
188,2019-07-08T03:07:00,0.3,北,0.5,北北東,18.8,95.3,0,0,0,0
189,2019-07-08T03:08:00,0.3,北,0.6,北北東,18.8,95.1,0,0,0,0
190,2019-07-08T03:09:00,0.3,北,0.6,北北東,18.8,95.1,0,0,0,0
191,2019-07-08T03:10:00,0.3,北,0.6,北北東,18.8,95.2,0,0,0,0
192,2019-07-08T03:11:00,0.4,北北東,0.7,北北東,18.7,95.1,0,0,0,0
193,2019-07-08T03:12:00,0.4,北北東,0.7,北北東,18.8,95.1,0,0,0,0
194,2019-07-08T03:13:00,0.4,北北東,0.8,北,18.8,95.1,0,0,0,0
195,2019-07-08T03:14:00,0.4,北北東,0.8,北,18.8,95.1,0,0,0,0
196,2019-07-08T03:15:00,0.5,北北東,0.8,北,18.7,94.9,0,0,0,0
197,2019-07-08T03:16:00,0.5,北北東,0.8,北,18.6,94.8,0,0,0,0
198,2019-07-08T03:17:00,0.6,北北東,0.8,北,18.4,94.6,0,0,0,0
199,2019-07-08T03:18:00,0.6,北,0.8,北,18.4,95,0,0,0,0
200,2019-07-08T03:19:00,0.6,北,0.8,北,18.3,95.3,0,0,0,0
201,2019-07-08T03:20:00,0.6,北,0.8,北,18.3,95.3,0,0,0,0
202,2019-07-08T03:21:00,0.6,北,0.8,北,18.3,95.5,0,0,0,0
203,2019-07-08T03:22:00,0.5,北,0.8,北,18.3,95.6,0,0,0,0
204,2019-07-08T03:23:00,0.5,北,0.7,北,18.6,96.2,0,0,0,0
205,2019-07-08T03:24:00,0.5,北,0.7,北,18.6,96,0,0,0,0
206,2019-07-08T03:25:00,0.5,北,0.7,北,18.4,95.6,0,0,0,0
207,2019-07-08T03:26:00,0.5,北,0.7,北,18.4,95.4,0,0,0,0
208,2019-07-08T03:27:00,0.4,北,0.7,北,18.3,95.4,0,0,0,0
209,2019-07-08T03:28:00,0.4,北,0.7,北,18.4,95.7,0,0,0,0
210,2019-07-08T03:29:00,,"",,"",,,,,,
211,2019-07-08T03:30:00,0.4,北,0.7,北,18.5,95.8,0,0,0,0
212,2019-07-08T03:31:00,,"",,"",,,,,,
213,2019-07-08T03:32:00,0.4,北,0.6,北,18.5,95.8,0,0,0,0
214,2019-07-08T03:33:00,0.4,北,0.6,北,18.4,95.7,0,0,0,0
215,2019-07-08T03:34:00,0.4,北,0.6,北,18.4,95.7,0,0,0,0
216,2019-07-08T03:35:00,0.4,北,0.6,北,18.5,95.9,0,0,0,0
217,2019-07-08T03:36:00,0.4,北,0.7,北北西,18.5,95.6,0,0,0,0
218,2019-07-08T03:37:00,0.4,北,0.7,北北西,18.4,95.5,0,0,0,0
219,2019-07-08T03:38:00,0.4,北,0.7,北北西,18.4,95.6,0,0,0,0
220,2019-07-08T03:39:00,0.4,北,0.7,北北西,18.5,95.9,0,0,0,0
221,2019-07-08T03:40:00,0.4,北,0.7,北北西,18.6,95.9,0,0,0,0
222,2019-07-08T03:41:00,0.4,北,0.7,北北西,18.5,95.8,0,0,0,0
223,2019-07-08T03:42:00,0.4,北,0.7,北北西,18.5,95.5,0,0,0,0
224,2019-07-08T03:43:00,0.4,北,0.7,北北西,18.6,95.9,0,0,0,0
225,2019-07-08T03:44:00,0.4,北,0.7,北北西,18.7,95.9,0,0,0,0
226,2019-07-08T03:45:00,0.4,北,0.8,北北東,18.7,95.6,0,0,0,0
227,2019-07-08T03:46:00,0.4,北,0.8,北北東,18.6,95.4,0,0,0,0
228,2019-07-08T03:47:00,0.5,北,0.8,北北東,18.4,95.1,0,0,0,0
229,2019-07-08T03:48:00,0.5,北,0.8,北北東,18.4,95.3,0,0,0,0
230,2019-07-08T03:49:00,0.5,北,0.8,北北東,18.3,95.4,0,0,0,0
231,2019-07-08T03:50:00,0.6,北,0.9,北,18.3,95.6,0,0,0,0
232,2019-07-08T03:51:00,0.6,北,0.9,北,18.3,95.7,0,0,0,0
233,2019-07-08T03:52:00,0.6,北,0.9,北,18.3,95.9,0,0,0,0
234,2019-07-08T03:53:00,0.7,北,0.9,北,18.4,96,0,0,0,0
235,2019-07-08T03:54:00,0.7,北,0.9,北,18.5,96.3,0,0,0,0
236,2019-07-08T03:55:00,0.7,北,0.9,北,18.4,96,0,0,0,0
237,2019-07-08T03:56:00,0.7,北,1,北,18.3,95.8,0,0,0,0
238,2019-07-08T03:57:00,0.7,北,1,北,18.3,95.8,0,0,0,0
239,2019-07-08T03:58:00,0.8,北,1,北,18.3,95.9,0,0,0,0
240,2019-07-08T03:59:00,0.8,北,1,北,18.3,96,0,0,0,0
241,2019-07-08T04:00:00,0.8,北,1,北,18.3,96.1,0,0,0,0
242,2019-07-08T04:01:00,0.8,北,1.2,北北東,18.4,96.3,0,0,0,0
243,2019-07-08T04:02:00,0.9,北,1.2,北北東,18.4,96.2,0,0,0,0
244,2019-07-08T04:03:00,0.9,北,1.2,北北東,18.5,96.3,0,0,0,0
245,2019-07-08T04:04:00,0.9,北,1.2,北北東,18.5,96,0,0,0,0
246,2019-07-08T04:05:00,0.9,北,1.2,北北東,18.4,95.9,0,0,0,0
247,2019-07-08T04:06:00,0.9,北,1.2,北北東,18.4,95.9,0,0,0,0
248,2019-07-08T04:07:00,0.9,北北東,1.2,北北東,18.4,96,0,0,0,0
249,2019-07-08T04:08:00,0.8,北北東,1.2,北北東,18.5,96.2,0,0,0,0
250,2019-07-08T04:09:00,0.8,北北東,1.2,北北東,18.4,95.9,0,0,0,0
251,2019-07-08T04:10:00,0.7,北北東,1.2,北北東,18.5,96,0,0,0,0
252,2019-07-08T04:11:00,0.7,北北東,1.1,北,18.6,96,0,0,0,0
253,2019-07-08T04:12:00,0.6,北北東,1.1,北,18.5,95.8,0,0,0,0
254,2019-07-08T04:13:00,,"",,"",,,,,,
255,2019-07-08T04:14:00,0.5,北北東,1.1,北,18.5,95.8,0,0,0,0
256,2019-07-08T04:15:00,0.4,北北東,0.9,北北東,18.6,95.7,0,0,0,0
257,2019-07-08T04:16:00,0.3,北北東,0.9,北北東,18.7,95.7,0,0,0,0
258,2019-07-08T04:17:00,0.3,北北東,0.7,北東,18.7,95.6,0,0,0,0
259,2019-07-08T04:18:00,0.3,北,0.7,北東,18.7,95.5,0,0,0,0
260,2019-07-08T04:19:00,0.3,北,0.7,北東,18.6,95.3,0,0,0,0
261,2019-07-08T04:20:00,0.3,北,0.8,北北東,18.7,95.3,0,0,0,0
262,2019-07-08T04:21:00,0.3,北,0.8,北北東,18.5,95.2,0,0,0,0
263,2019-07-08T04:22:00,0.4,北,0.9,北北西,18.5,95.2,0,0,0,0
264,2019-07-08T04:23:00,0.4,北北西,0.9,北北西,18.4,95.3,0,0,0,0
265,2019-07-08T04:24:00,0.5,北北西,1,北北西,18.4,95.5,0,0,0,0
266,2019-07-08T04:25:00,0.6,北北西,1.3,北西,18.4,95.6,0,0,0,0
267,2019-07-08T04:26:00,0.7,北北西,1.3,北西,18.4,95.8,0,0,0,0
268,2019-07-08T04:27:00,0.8,北北西,1.7,北北西,18.4,95.9,0,0,0,0
269,2019-07-08T04:28:00,0.9,北北西,1.8,北,18.4,95.9,0,0,0,0
270,2019-07-08T04:29:00,1,北北西,1.8,北,18.4,96,0,0,0,0
271,2019-07-08T04:30:00,1.1,北北西,1.8,北,18.5,96.1,0,0,0,0
272,2019-07-08T04:31:00,1.2,北北西,1.8,北,18.4,96.1,0,0,0,0
273,2019-07-08T04:32:00,1.3,北北西,1.9,北,18.4,96.2,0,0,0,0
274,2019-07-08T04:33:00,1.4,北北西,2.2,北,18.5,96.2,0,0,0,0
275,2019-07-08T04:34:00,1.5,北,2.2,北,18.5,96.3,0,0,0,0
276,2019-07-08T04:35:00,1.6,北,2.6,北北東,18.5,96.4,0,0,0,0
277,2019-07-08T04:36:00,1.6,北,2.6,北北東,18.6,96.5,0,0,0,0
278,2019-07-08T04:37:00,1.7,北,2.6,北北東,18.6,96.5,0,0,0,0
279,2019-07-08T04:38:00,1.7,北,2.6,北北東,18.6,96.4,0,0,0,0
280,2019-07-08T04:39:00,1.7,北,2.6,北北東,18.6,96.5,0,0,0,0
281,2019-07-08T04:40:00,1.7,北,2.6,北北東,18.6,96.4,0,0,0,0
282,2019-07-08T04:41:00,1.7,北,2.6,北北東,18.6,96.5,0,0,0,0
283,2019-07-08T04:42:00,1.7,北,2.7,北西,18.6,96.5,0,0,0,0
284,2019-07-08T04:43:00,1.8,北北西,2.9,北西,18.7,96.5,0,0,0,0
285,2019-07-08T04:44:00,1.8,北北西,2.9,北西,18.7,96.5,0,0,0,0
286,2019-07-08T04:45:00,1.9,北北西,3.4,北西,18.7,96.5,0,0,0,0
287,2019-07-08T04:46:00,2,北北西,3.7,北西,18.7,96.5,0,0,0,0
288,2019-07-08T04:47:00,2.1,北北西,3.7,北西,18.7,96.4,0,0,0,0
289,2019-07-08T04:48:00,2.1,北西,3.7,北西,18.7,96.5,0,0,0,0
290,2019-07-08T04:49:00,2.2,北西,3.7,北西,18.7,96.5,0,0,0,0
291,2019-07-08T04:50:00,2.3,北西,3.7,北西,18.7,96.5,0,0,0,0
292,2019-07-08T04:51:00,2.3,北西,3.7,北西,18.7,96.5,0,0,0,0
293,2019-07-08T04:52:00,2.2,北西,3.7,北西,18.7,96.4,0,0,0,0
294,2019-07-08T04:53:00,2.2,北西,3.7,北西,18.7,96.4,0,0,0,0
295,2019-07-08T04:54:00,2.2,北西,3.7,北西,18.7,96.5,0,0,0,0
296,2019-07-08T04:55:00,2.2,北西,3.7,北西,18.7,96.4,0,0,0,0
297,2019-07-08T04:56:00,2,北西,3.3,北西,18.7,96.5,0,0,0,0
298,2019-07-08T04:57:00,1.9,北北西,3,北北西,18.7,96.5,0,0,0,0
299,2019-07-08T04:58:00,1.9,北北西,3,北北西,18.7,96.4,0,0,0,0
300,2019-07-08T04:59:00,,"",,"",,,,,,
301,2019-07-08T05:00:00,1.9,北北西,3.2,北西,18.7,96.4,0,0,0,0
302,2019-07-08T05:01:00,2,北北西,3.2,北西,18.7,96.4,0,0,0,0
303,2019-07-08T05:02:00,2.1,北北西,3.2,北西,18.7,96.4,0,0,0,0
304,2019-07-08T05:03:00,2.1,北北西,3.2,北西,18.7,96.5,0,0,0,0
305,2019-07-08T05:04:00,2.1,北北西,3.2,北西,18.7,96.5,0,0,0,0
306,2019-07-08T05:05:00,2.1,北北西,3.5,北北西,18.7,96.4,0,0,0,0
307,2019-07-08T05:06:00,2.2,北北西,3.5,北北西,18.7,96.4,0,0,0,0
308,2019-07-08T05:07:00,2.3,北西,3.5,北北西,18.7,96.4,0,0,0,0
309,2019-07-08T05:08:00,2.4,北西,3.5,北北西,18.7,96.4,0,0,0,0
310,2019-07-08T05:09:00,2.3,北北西,3.5,北北西,18.7,96.5,0,0,0,0
311,2019-07-08T05:10:00,2.3,北北西,3.5,北北西,18.7,96.4,0,0,0,0
312,2019-07-08T05:11:00,2.3,北北西,3.5,北北西,18.7,96.4,0,0,0,0
313,2019-07-08T05:12:00,2.4,北西,3.5,北北西,18.7,96.4,0,0,0,0
314,2019-07-08T05:13:00,2.5,北北西,3.5,北北西,18.7,96.3,0,0,0,0
315,2019-07-08T05:14:00,2.5,北北西,3.5,北北西,18.7,96.4,0,0,0,0
316,2019-07-08T05:15:00,2.4,北北西,3.3,北西,18.7,96.4,0,0,0,0
317,2019-07-08T05:16:00,2.4,北北西,3.3,北西,18.7,96.4,0,0,0,0
318,2019-07-08T05:17:00,2.2,北北西,3.3,北西,18.8,96.5,0,0,0,0
319,2019-07-08T05:18:00,2.2,北北西,3.3,北西,18.8,96.3,0,0,0,0
320,2019-07-08T05:19:00,2.2,北北西,3.3,北西,18.7,96.3,0,0,0,0
321,2019-07-08T05:20:00,2.1,北北西,3.3,北西,18.8,96.4,0,0,0,0
322,2019-07-08T05:21:00,1.9,北北西,3.3,北西,18.9,96.3,0,0,0,0
323,2019-07-08T05:22:00,1.8,北北西,3.3,北西,18.8,96.2,0,0,0,0
324,2019-07-08T05:23:00,1.8,北北西,2.7,北西,18.7,96,0,0,0,0
325,2019-07-08T05:24:00,1.8,北北西,2.9,北北西,18.7,96.1,0,0,0,0
326,2019-07-08T05:25:00,1.8,北北西,2.9,北北西,18.7,96.1,0,0,0,0
327,2019-07-08T05:26:00,1.8,北北西,2.9,北北西,18.7,96.2,0,0,0,0
328,2019-07-08T05:27:00,1.9,北北西,2.9,北北西,18.7,96.2,0,0,0,0
329,2019-07-08T05:28:00,1.9,北北西,2.9,北北西,18.7,96.3,0,0,0,0
330,2019-07-08T05:29:00,1.9,北北西,2.9,北北西,18.7,96.3,0,0,0,0
331,2019-07-08T05:30:00,1.9,北北西,2.9,北北西,18.7,96.4,0,0,0,0
332,2019-07-08T05:31:00,2,北北西,2.9,北北西,18.7,96.5,0,0,0,0
333,2019-07-08T05:32:00,2,北北西,2.9,北北西,18.7,96.4,0,0,0,0
334,2019-07-08T05:33:00,1.9,北北西,2.9,北北西,18.7,96.3,0,0,0,0
335,2019-07-08T05:34:00,1.9,北北西,2.8,北西,18.7,96.3,0,0,0,0
336,2019-07-08T05:35:00,1.9,北北西,2.7,北北西,18.7,96.4,0,0,0,0
337,2019-07-08T05:36:00,1.9,北北西,2.7,北北西,18.7,96.3,0,0,0,0
338,2019-07-08T05:37:00,1.9,北北西,2.7,北北西,18.7,96.3,0,0,0,0
339,2019-07-08T05:38:00,1.8,北北西,2.7,北北西,18.7,96.4,0,0,0,0
340,2019-07-08T05:39:00,1.8,北北西,2.7,北北西,18.7,96.4,0,0,0,0
341,2019-07-08T05:40:00,1.8,北北西,2.7,北北西,18.8,96.4,0,0,0,0
342,2019-07-08T05:41:00,,"",,"",,,,,,
343,2019-07-08T05:42:00,1.7,北北西,2.7,北北西,18.8,96.3,0,0,0,0
344,2019-07-08T05:43:00,,"",,"",,,,,,
345,2019-07-08T05:44:00,1.6,北北西,2.7,北北西,18.8,96.3,0,0,0,0
346,2019-07-08T05:45:00,1.5,北北西,2.4,北北西,18.8,96.2,0,0,0,0
347,2019-07-08T05:46:00,1.4,北北西,2.1,北北西,18.8,96.2,0,0,0,0
348,2019-07-08T05:47:00,1.4,北北西,2.1,北北西,18.8,96.3,0,0,0,0
349,2019-07-08T05:48:00,1.4,北北西,2.1,北北西,18.8,96.2,0,0,0,0
350,2019-07-08T05:49:00,1.4,北北西,2.1,北北西,18.8,96.1,0,0,0,0
351,2019-07-08T05:50:00,1.3,北北西,2,北,18.8,96.1,0,0,0,0
352,2019-07-08T05:51:00,1.2,北北西,1.9,北北西,18.8,96.2,0,0,0,0
353,2019-07-08T05:52:00,1.3,北北西,1.8,北,18.8,96.1,0,0,0,0
354,2019-07-08T05:53:00,1.3,北北西,1.8,北,18.8,96.1,0,0,0,0
355,2019-07-08T05:54:00,1.3,北北西,1.8,北,18.8,96.1,0,0,0,0
356,2019-07-08T05:55:00,1.3,北北西,1.8,北,18.8,96.1,0,0,0,0
357,2019-07-08T05:56:00,1.3,北北西,1.8,北,18.8,96.1,0,0,0,0
358,2019-07-08T05:57:00,1.3,北北西,1.7,北北西,18.8,95.9,0,0,0,0
359,2019-07-08T05:58:00,1.3,北北西,1.7,北北西,18.8,96,0,0,0,0
360,2019-07-08T05:59:00,1.3,北北西,1.7,北北西,18.9,96.2,0,0,0,0
361,2019-07-08T06:00:00,1.4,北北西,1.9,北,18.8,96.1,0,0,0,0
362,2019-07-08T06:01:00,1.4,北北西,1.9,北,18.9,96,0,0,0,0
363,2019-07-08T06:02:00,1.4,北北西,1.9,北,18.9,96.1,0,0,0,0
364,2019-07-08T06:03:00,1.4,北,1.9,北,18.9,96.1,0,0,0,0
365,2019-07-08T06:04:00,1.4,北,1.9,北,18.9,96,0,0,0,0
366,2019-07-08T06:05:00,1.3,北,1.9,北,18.9,95.9,0,0,0,0
367,2019-07-08T06:06:00,1.3,北,1.9,北,18.9,95.7,0,0,0,0
368,2019-07-08T06:07:00,1.2,北,1.9,北,19,95.8,0,0,0,0
369,2019-07-08T06:08:00,1.1,北,1.9,北,19,95.9,0,0,0,0
370,2019-07-08T06:09:00,1.1,北,1.9,北,19,95.6,0,0,0,0
371,2019-07-08T06:10:00,1,北,1.8,北,18.9,95.5,0,0,0,0
372,2019-07-08T06:11:00,0.9,北,1.7,北,18.9,95.6,0,0,0,0
373,2019-07-08T06:12:00,0.8,北,1.7,北,18.9,95.6,0,0,0,0
374,2019-07-08T06:13:00,0.7,北,1.3,北,19,95.7,0,0,0,0
375,2019-07-08T06:14:00,0.7,北,1.2,北北東,19,95.6,0,0,0,0
376,2019-07-08T06:15:00,0.6,北,1.1,北北東,19,95.7,0,0,0,0
377,2019-07-08T06:16:00,0.6,北,1,北北東,19,95.7,0,0,0,0
378,2019-07-08T06:17:00,0.6,北,1.2,北,19,95.9,0,0,0,0
379,2019-07-08T06:18:00,0.7,北北西,1.3,北北西,19,95.6,0,0,0,0
380,2019-07-08T06:19:00,0.7,北北西,1.4,北北東,19,95.6,0,0,0,0
381,2019-07-08T06:20:00,0.8,北北西,1.6,北,19,95.7,0,0,0,0
382,2019-07-08T06:21:00,0.9,北北西,1.8,北,19,95.7,0,0,0,0
383,2019-07-08T06:22:00,,"",,"",,,,,,
384,2019-07-08T06:23:00,1.1,北北西,1.9,北,19,95.6,0,0,0,0
385,2019-07-08T06:24:00,1.2,北,2,北,19,95.6,0,0,0,0
386,2019-07-08T06:25:00,1.3,北,2,北,19,95.6,0,0,0,0
387,2019-07-08T06:26:00,1.4,北,2.1,北北西,19,95.6,0,0,0,0
388,2019-07-08T06:27:00,1.5,北,2.1,北北西,19,95.6,0,0,0,0
389,2019-07-08T06:28:00,1.6,北,2.3,北,19.2,95.7,0,0,0,0
390,2019-07-08T06:29:00,1.7,北,2.3,北,19.2,95.6,0,0,0,0
391,2019-07-08T06:30:00,1.7,北,2.4,北,19.2,95.4,0,0,0,0
392,2019-07-08T06:31:00,1.8,北,2.4,北,19.1,95.2,0,0,0,0
393,2019-07-08T06:32:00,1.9,北,2.4,北,19.1,95.2,0,0,0,0
394,2019-07-08T06:33:00,1.9,北,2.6,北北東,19.1,95.4,0,0,0,0
395,2019-07-08T06:34:00,2,北,2.6,北北東,19.1,95.4,0,0,0,0
396,2019-07-08T06:35:00,2,北,2.6,北北東,19.1,95.2,0,0,0,0
397,2019-07-08T06:36:00,2.1,北,2.6,北北東,19.2,95.3,0,0,0,0
398,2019-07-08T06:37:00,2.1,北,2.6,北北東,19.1,95.4,0,0,0,0
399,2019-07-08T06:38:00,2.2,北,2.7,北,19.2,95.5,0,0,0,0
400,2019-07-08T06:39:00,2.2,北,2.7,北,19.2,95.3,0,0,0,0
401,2019-07-08T06:40:00,2.1,北,2.7,北,19.4,95.6,0,0,0,0
402,2019-07-08T06:41:00,2.1,北,2.7,北,19.4,95.5,0,0,0,0
403,2019-07-08T06:42:00,2,北,2.7,北,19.6,95.5,0,0,0,0
404,2019-07-08T06:43:00,2.1,北,2.9,北,19.4,94.9,0,0,0,0
405,2019-07-08T06:44:00,2,北,2.9,北,19.4,94.5,0,0,0,0
406,2019-07-08T06:45:00,2,北,2.9,北,19.4,94.4,0,0,0,0
407,2019-07-08T06:46:00,2,北,2.9,北,19.4,94.5,0,0,0,0
408,2019-07-08T06:47:00,1.9,北,2.9,北,19.5,94.5,0,0,0,0
409,2019-07-08T06:48:00,1.8,北,2.9,北,19.4,93.7,0,0,0,0
410,2019-07-08T06:49:00,1.8,北,2.9,北,19.6,94.2,0,0,0,0
411,2019-07-08T06:50:00,1.7,北,2.9,北,19.5,93.6,0,0,0,0
412,2019-07-08T06:51:00,1.7,北,2.9,北,19.7,94.2,0,0,0,0
413,2019-07-08T06:52:00,1.7,北,2.9,北,19.6,93.3,0,0,0,0
414,2019-07-08T06:53:00,1.6,北,2.9,北,19.5,92.6,0,0,0,0
415,2019-07-08T06:54:00,1.6,北,2.6,北,19.6,93.1,0,0,0,0
416,2019-07-08T06:55:00,1.6,北,2.6,北,19.7,93.5,0,0,0,0
417,2019-07-08T06:56:00,1.5,北,2.1,北,19.7,92.9,0,0,0,0
418,2019-07-08T06:57:00,1.5,北,2.1,北,19.8,93,0,0,0,0
419,2019-07-08T06:58:00,1.5,北,2.1,北,19.9,92.9,0,0,0,0
420,2019-07-08T06:59:00,1.6,北,2.1,北,19.8,91.8,0,0,0,0
421,2019-07-08T07:00:00,1.6,北,2.1,北,19.7,91.6,0,0,0,0
422,2019-07-08T07:01:00,1.6,北,2.1,北,19.8,91.9,0,0,0,0
423,2019-07-08T07:02:00,1.5,北,2.1,北北西,19.9,91.9,0,0,0,0
424,2019-07-08T07:03:00,1.5,北,2.1,北北西,19.9,91.8,0,0,0,0
425,2019-07-08T07:04:00,1.5,北,2.1,北北西,19.9,91.3,0,0,0,0
426,2019-07-08T07:05:00,1.4,北,2.1,北北西,19.9,90.9,0,0,0,0
427,2019-07-08T07:06:00,1.5,北北西,2.1,北北西,19.9,91,0,0,0,0
428,2019-07-08T07:07:00,1.5,北北西,2.1,北北西,20.1,91.5,0,0,0,0
429,2019-07-08T07:08:00,1.5,北,2.1,北北西,20.1,91.3,0,0,0,0
430,2019-07-08T07:09:00,1.5,北,2.1,北,20.1,90.6,0,0,0,0
431,2019-07-08T07:10:00,,"",,"",,,,,,
432,2019-07-08T07:11:00,1.5,北,2.1,北,20.2,90.7,0,0,0,0
433,2019-07-08T07:12:00,1.6,北,2.5,北,20.2,90.7,0,0,0,0
434,2019-07-08T07:13:00,1.7,北,2.5,北,20.1,90,0,0,0,0
435,2019-07-08T07:14:00,1.7,北,2.5,北,20.2,90.8,0,0,0,0